Regional Weather Roundup
Issued by NWS Lake Charles, LA

Home | Current Version | Previous Version | Text Only | Print | Product List | Glossary On
Versions: 1 2 3 4 5 6 7 8 9 10 11 12 13 14 15 16 17 18 19 20 21 22 23 24 25 26 27
000
ASUS44 KLCH 032010
RWRLCH
REGIONAL WEATHER ROUNDUP
NATIONAL WEATHER SERVICE LAKE CHARLES LA
300 PM CDT TUE MAY 03 2016

Note: "fair" indicates few or no clouds below 12,000 feet with no
significant weather and/or obstructions to visibility.


ACROSS SOUTHEAST TEXAS

CITY           SKY/WX    TMP DP  RH WIND       PRES   REMARKS
BEAUMONT       MOSUNNY   78  58  49 N12G17    29.96F
BEAUMONT CITY  FAIR      76  55  46 N7        29.98F
ORANGE         CLEAR     76  54  47 N6        29.98F
JASPER         MOSUNNY   71  54  55 NW7       30.02F
$$

ACROSS CENTRAL LOUISIANA

CITY           SKY/WX    TMP DP  RH WIND       PRES   REMARKS
LEESVILLE      MOSUNNY   72  56  58 NW8       29.97F
FULLERTON      MOCLDY    72  56  57 VRB3      29.95F
ALEXANDRIA INT MOSUNNY   74  56  53 N8        29.95F
ESLER FIELD    PTSUNNY   76  56  49 VRB5      29.96F
DERIDDER       MOCLDY    73  56  57 NW10      30.00F
OAKDALE        MOCLDY    74  58  56 N6        29.96F
OPELOUSAS      MOCLDY    74  60  61 N8G17     29.96F
$$

ACROSS SOUTHWEST AND SOUTH CENTRAL LOUISIANA

CITY           SKY/WX    TMP DP  RH WIND       PRES   REMARKS
SULPHUR        PTCLDY    77  59  53 W6        29.97F
LAKE CHARLES   PTSUNNY   78  59  51 NW9       29.95F
CHENNAULT INT  MOSUNNY   75  59  57 N3        29.96F
CAMERON PHI    NOT AVBL
DEQUINCY       FAIR      74  57  55 NW6       29.98F
JENNINGS       FAIR      73  59  60 N6        29.96F
LAFAYETTE      CLOUDY    74  60  61 N9        29.96F
NEW IBERIA     PTSUNNY   75  62  64 N10       29.96F
ABBEVILLE      CLOUDY    74  63  69 N9        29.96F
PATTERSON      NOT AVBL
SALT POINT       N/A     75  67  76 VRB7      29.92F
$$

SELECTED SITES ACROSS THE REGION

CITY           SKY/WX    TMP DP  RH WIND       PRES   REMARKS
HOUSTON BUSH   SUNNY     73  49  42 N13       30.00F
HOUSTON HOBBY  SUNNY     76  50  40 N7        29.99F
GALVESTON      SUNNY     73  59  61 N15       29.99F
COLLEGE STAT   SUNNY     73  48  41 N17G25    30.03F
CONROE         SUNNY     73  49  42 N9        30.02F
HUNTSVILLE     MOSUNNY   72  50  45 N9        30.03F
LUFKIN         SUNNY     72  49  44 N10G16    30.02F
SHREVEPORT     MOSUNNY   72  50  45 N9G20     30.02F
MONROE         PTSUNNY   72  56  57 N9G20     29.99F
NATCHEZ MS     PTSUNNY   73  57  56 N10G17    29.96F
BATON ROUGE    PTSUNNY   73  60  63 N8        29.94F
N.O. INTL ARPT PTSUNNY   76  66  71 NW9       29.92F
SLIDELL        CLOUDY    75  67  76 VRB3      29.91S
$$

MARINE REPORTS

STATION/POSITION TIME  SKY/WX   TEMP    WIND        PRES    VSBY
                                AIR SEA DIR/SP/G
                 (UTC)          (F)     (DEG/KT/KT) (MB)    (MI)
BUOY 30 S HIGH I 1950            70 76  320/ 12/ 14 1014.7F
WVE H/P(F/S)=  2/ 7

SEA RIM ST PARK  2000            74     350/  8/ 11 1015.2F
PORT ARTHUR      1900               75  340/  5/  8 1015.6F
SABINE PASS N    1900            72 77  330/  4/  8 1016.8F
TEXAS POINT      NOT AVBL
CALCASIEU PASS   1900            70 75  360/  9/ 13 1014.4F
LK CHARLES BEACH 1900            73 73              1015.5F
MARSH ISLAND     NOT AVBL
FRESH WATER LOCK 1900            71 74  290/  8/ 11 1015.3F
AMERADA PASS     1900            74 73  260/  3/  6 1013.6F
$$




USA.gov is the U.S. government's official web portal to all federal, state and local government web resources and services.